This is the latest recevied weather packets stored in our database for station/object EA3IK-1. If no packets are shown the sender has not sent any weather packets the latest 10 day(s).
| Time | Temp. | Humidity | Pressure | Rain* | Wind** | Luminosity | Snow |
|---|---|---|---|---|---|---|---|
| 1777444674 | 15° C | 48% | 1011.1 hPa | 0 mm | - | - | - |
| 1777443773 | 15° C | 44% | 1011.2 hPa | 0 mm | - | - | - |
| 1777442872 | 14.44° C | 43% | 1011.1 hPa | 0 mm | - | - | - |
| 1777441971 | 14.44° C | 44% | 1011.1 hPa | 0.25 mm | - | - | - |
| 1777441071 | 14.44° C | 46% | 1011 hPa | 0.25 mm | - | - | - |
| 1777440170 | 15° C | 46% | 1011.2 hPa | 0.25 mm | - | - | - |
| 1777439269 | 15° C | 47% | 1011.2 hPa | 0.25 mm | - | - | - |
| 1777438368 | 15° C | 46% | 1011.2 hPa | 0.25 mm | - | - | - |
| 1777437467 | 15° C | 46% | 1011.2 hPa | 0.25 mm | - | - | - |
| 1777436566 | 15° C | 48% | 1011 hPa | 0.25 mm | - | - | - |
| 1777435675 | 15.56° C | 52% | 1011 hPa | 0.25 mm | - | - | - |
| 1777434765 | 16.11° C | 51% | 1011.4 hPa | 0 mm | - | - | - |
| 1777433864 | 16.11° C | 49% | 1011.4 hPa | 0 mm | - | - | - |
| 1777432963 | 16.11° C | 50% | 1011.6 hPa | 0 mm | - | - | - |
| 1777428459 | 16.11° C | 46% | 1012 hPa | 0 mm | - | - | - |
| 1777427558 | 16.11° C | 46% | 1012.1 hPa | 0 mm | - | - | - |
| 1777425756 | 16.11° C | 48% | 1012.3 hPa | 0 mm | - | - | - |
| 1777422153 | 16.11° C | 50% | 1012.7 hPa | 0 mm | - | - | - |
| 1777415847 | 16.11° C | 51% | 1013 hPa | 0 mm | - | - | - |
| 1777414045 | 16.11° C | 55% | 1012.7 hPa | 0 mm | - | - | - |
| 1777409541 | 16.67° C | 59% | 1011.8 hPa | 0 mm | - | - | - |
| 1777408640 | 17.22° C | 61% | 1011.7 hPa | 0 mm | - | - | - |
| 1777407739 | 17.22° C | 63% | 1011.6 hPa | 0 mm | - | - | - |
| 1777404136 | 17.78° C | 62% | 1010.7 hPa | 0 mm | - | - | - |
| 1777397830 | 20° C | 66% | 1010.9 hPa | 0 mm | - | - | - |
* Rain latest hour (hover to see other rain measurements)
** Current wind speed in m/s (hover to see current wind gust speed)